Погода в Якшанге

Россия / Костромская область     58°21′29″N   45°55′11″E
темп.,
°C
ветер,
м/с
пор.,
м/с
влажн.,
%
обл.,
%
осадки,
мм/ч
давл.,
гПа
погр.,
м
8 августа, пн
пн800:00+18зюз257695 0.0 1019113
03:00+17зсз11916 0.0 101912
06:00+18ссз248764 0.0 1020171
09:00+23с116324 0.0 1021560
12:00+27ссз22505 0.0 10211383
15:00+26сз425610 0.0 1020950
18:00+23с23739 0.6 1020280
21:00+17св119597 2.4 102113
9 августа, вт
вт900:00+16ссв2397100 0.6 102158
03:00+15с249983 1.2 1021101
06:00+16св249761 0.2 1021142
09:00+19ссв129196 1.4 1021280
12:00+26ссв1159100 0.0 10201037
15:00+24сз116589 2.4 1019634
18:00+20сз2692100 1.9 1019163
21:00+17св2699100 3.3 1020200
10 августа, ср
ср1000:00+16зсз2399100 1.1 101972
03:00+16сз1599100 1.4 1019174
06:00+16с1298100 0.3 1018124
09:00+17з1295100 0.6 1018250
12:00+18ссз1291100 2.2 1018491
15:00+19сз228541 4.7 1018548
18:00+17с2686100 0.8 1018292
21:00+13с289018 0.8 1018204
11 августа, чт
чт1100:00+11ссз3892100 0.0 1019379
03:00+11сз499287 0.0 1019474
06:00+12сз3128010 0.0 1021553
09:00+17сз475959 0.0 1021753
12:00+21сз48455 0.0 10211849
15:00+21сз3644100 0.0 10211765
18:00+19з2468100 0.0 1021166
21:00+16з387795 0.0 1021190
12 августа, пт
пт1200:00+14з2776100 0.0 1021138
03:00+13з2982100 0.0 1021187
06:00+15з31176100 0.0 1021323
09:00+20з485742 0.0 1020726
12:00+24з584537 0.0 10191760
15:00+25зсз584552 0.0 10182124
18:00+22зсз485612 0.0 1017925
21:00+16з310950 0.2 1019229